Theta_e
303 307 309 307 307 306 302 301 298 299 300 305 308 310 311 311 314 315 313 314 317 316 316 317 319 319 321 319 317 319 318 315 315 314 313 313 314 314 314 313 314 313 313 313
305 311 310 306 308 308 307 305 304 303 300 310 312 312 311 311 311 311 313 314 318 317 318 319 321 321 318 315 315 316 316 313 313 313 313 314 314 314 314 315 315 315 315 315
298 307 305 298 304 307 305 307 306 300 303 307 307 309 310 310 311 311 313 315 316 317 320 322 322 323 317 318 317 315 318 318 318 317 316 315 316 315 314 313 314 314 314 315
298 299 290 301 310 312 307 307 306 305 305 307 307 308 310 312 311 311 314 315 315 318 318 319 316 313 313 312 311 310 310 312 313 312 311 313 312 310 312 312 311 311 306 302
295 295 301 307 309 307 303 302 307 306 307 307 309 308 307 313 314 312 313 314 314 316 314 310 308 307 307 305 306 307 307 307 308 309 306 308 306 305 306 306 307 307 303 300
297 293 291 304 313 317 313 299 309 309 308 307 308 299 302 311 314 315 314 315 313 311 310 307 305 304 302 300 300 301 303 303 302 304 302 296 296 299 301 302 304 309 305 299
296 296 301 312 313 314 299 300 311 311 311 310 307 307 309 313 315 314 312 310 308 306 305 304 302 299 297 296 295 298 299 298 298 299 294 293 293 295 293 297 300 304 306 303
301 297 296 316 315 305 308 315 315 315 313 312 312 311 314 315 313 311 308 307 305 302 301 300 298 297 293 292 294 296 296 295 295 294 293 293 291 291 292 292 291 288 287 288
305 301 310 315 311 315 315 314 314 315 318 316 313 313 315 313 311 310 307 306 304 301 298 297 296 295 292 293 295 295 293 293 292 290 291 290 290 292 289 289 287 286 285 285
305 309 311 314 316 316 317 317 319 320 319 318 315 316 314 311 310 309 307 304 302 301 297 294 294 294 294 295 295 293 291 291 292 290 290 291 291 290 288 286 286 286 285 284
306 308 311 313 314 316 315 317 318 320 318 316 316 313 312 311 308 307 306 305 302 300 296 294 293 293 295 295 295 293 293 292 290 290 288 288 288 287 288 288 288 286 285 284
302 310 308 308 313 318 313 314 316 315 314 316 315 313 311 305 304 301 299 298 297 295 295 295 295 294 295 295 294 293 291 290 290 289 287 287 286 287 291 291 292 292 291 288
312 316 315 315 316 317 316 314 312 310 312 308 306 305 302 298 297 300 297 296 295 295 294 295 294 294 295 295 294 291 288 288 288 287 285 285 285 284 284 289 291 291 291 291
318 316 314 317 314 316 312 307 305 304 303 302 301 300 298 295 295 295 295 296 297 296 296 296 295 295 294 292 291 290 287 292 285 284 285 284 284 285 284 283 284 285 288 289
319 318 315 314 314 309 306 302 299 298 299 298 297 296 296 295 294 295 296 296 297 297 296 296 293 292 292 291 289 287 287 287 286 285 285 286 285 284 284 284 284 284 284 288
314 319 317 312 312 307 304 300 298 298 298 297 297 296 297 297 297 297 297 296 294 293 294 293 292 292 292 290 287 288 288 292 290 286 286 286 285 284 284 285 284 284 284 285
307 301 298 296 296 297 297 298 297 296 295 296 296 297 298 297 297 297 297 297 296 293 293 291 291 294 294 290 289 289 288 288 289 286 286 286 284 284 285 285 285 284 285 286
297 296 297 297 295 295 295 295 295 295 294 295 296 296 296 296 294 295 296 295 294 292 292 293 292 292 292 292 290 287 286 286 286 285 285 285 284 284 285 286 286 285 285 286
297 296 296 296 296 295 293 292 292 293 294 294 294 294 295 295 294 293 292 292 291 289 290 290 294 292 288 290 288 285 285 285 285 284 284 286 284 284 285 285 285 285 285 286
293 293 293 293 294 293 292 293 293 293 294 294 294 293 290 291 291 291 290 289 289 289 291 291 291 289 288 288 288 284 284 284 284 284 284 284 284 286 287 286 287 287 287 286
292 293 292 292 293 294 294 295 294 294 294 293 291 290 290 289 289 290 288 286 289 291 290 292 287 287 286 285 286 283 283 284 284 284 284 286 287 287 286 287 287 287 286 286
292 292 293 293 292 291 292 292 293 292 290 290 291 290 288 287 288 288 287 286 287 289 287 286 286 286 285 286 283 283 284 285 285 286 287 287 285 285 285 285 285 285 286 285
290 291 292 292 290 290 291 291 290 290 290 290 289 288 287 286 286 285 284 286 286 287 286 286 285 284 283 283 283 284 285 286 286 285 285 284 285 284 284 285 285 285 285 285
292 293 291 289 290 289 287 288 287 287 287 288 289 288 286 284 285 286 286 288 287 287 286 285 284 284 285 284 284 284 284 284 284 285 286 285 284 284 284 284 284 285 285 286
291 289 288 287 286 285 284 285 285 285 286 285 286 286 286 286 286 286 287 287 287 286 285 285 285 285 284 284 284 283 283 283 283 283 283 283 283 284 284 284 285 285 286 286
287 286 286 287 285 284 284 284 283 284 284 284 284 285 286 286 285 285 285 286 286 286 284 284 284 284 283 283 283 283 283 283 284 283 283 283 283 283 284 285 286 286 287 286
286 287 285 284 284 285 285 285 283 283 284 283 283 284 284 285 285 284 285 284 283 283 283 283 283 283 283 282 283 283 283 283 283 283 283 283 283 284 284 285 286 285 285 286
Wind_Speed
6 8 6 7 11 11 8 6 6 5 7 6 7 6 5 6 3 5 3 3 4 4 3 4 6 6 3 5 4 7 9 8 8 7 7 7 8 7 7 6 6 6 6 7
5 8 8 10 13 10 6 4 6 6 2 6 5 4 6 7 8 7 6 6 5 6 4 5 6 5 6 6 6 5 1 6 1 3 4 4 4 4 4 5 5 5 6 6
5 3 2 6 7 6 4 3 8 6 7 8 5 7 8 8 7 7 9 7 4 5 3 3 4 5 7 5 7 7 8 9 7 5 5 6 6 6 6 5 4 6 6 7
3 2 1 7 5 6 6 2 5 6 8 9 8 7 4 7 8 7 6 4 5 5 2 3 6 11 10 10 8 7 8 7 5 6 6 5 5 6 4 3 5 5 6 7
2 3 5 1 5 3 3 5 6 10 7 7 6 4 4 8 8 8 8 7 5 5 5 7 8 9 11 8 7 8 7 6 6 5 5 6 6 6 4 4 2 3 4 5
3 3 4 3 8 16 8 6 7 9 13 13 8 5 7 11 9 6 4 11 13 9 6 8 6 7 10 8 9 8 7 6 6 5 6 6 5 5 3 3 4 2 5 4
3 3 4 3 10 12 4 12 11 15 15 15 12 10 9 9 8 9 11 14 10 9 8 7 6 8 10 7 7 4 5 5 7 7 6 6 5 4 5 6 6 6 5 3
2 2 7 11 6 7 7 6 6 4 8 16 12 9 13 15 15 13 14 13 11 12 10 6 7 10 8 9 5 6 6 7 7 7 5 5 6 6 4 4 5 4 2 1
4 8 5 5 6 5 7 3 4 4 2 8 11 13 15 14 14 12 13 11 11 12 10 7 7 8 9 4 6 6 7 7 6 6 6 6 6 6 4 3 2 2 2 2
3 5 10 10 6 6 6 8 5 6 3 4 13 15 14 13 14 13 12 13 10 13 12 8 7 8 7 6 6 6 6 5 5 5 6 6 4 3 3 3 3 3 4 4
7 9 4 8 9 5 8 6 5 3 3 12 15 12 15 13 11 10 9 9 8 8 10 8 7 7 6 6 6 5 3 4 5 4 5 5 4 2 3 4 4 5 4 3
8 10 5 4 7 6 4 2 3 6 9 10 15 17 14 11 11 11 11 10 10 7 8 7 7 6 6 6 5 4 3 4 4 3 3 4 4 6 8 7 8 9 8 6
7 5 4 1 5 6 6 7 11 12 10 14 12 15 14 13 9 12 9 10 9 10 8 8 7 6 5 5 4 3 2 3 2 3 3 4 4 4 5 11 9 7 8 8
7 5 5 5 4 8 16 17 18 16 15 13 14 13 14 13 12 12 10 7 8 8 6 4 1 3 4 5 4 3 2 5 2 3 4 4 4 5 4 3 4 4 7 5
8 10 5 10 14 16 15 16 18 14 12 14 12 12 10 12 11 8 6 4 5 4 2 3 1 3 5 4 4 2 2 3 4 4 4 5 4 5 4 4 4 5 3 6
7 6 12 13 13 13 13 16 19 13 12 11 13 12 12 6 5 3 5 3 2 3 5 4 4 5 4 6 5 4 5 7 5 4 4 5 4 4 5 4 4 5 4 4
10 10 11 13 14 15 15 13 14 14 12 10 9 5 7 7 3 3 5 7 7 5 5 4 5 5 0 6 6 3 3 4 6 4 4 4 4 5 5 5 5 4 4 4
13 18 13 12 13 13 13 12 10 10 9 9 7 6 5 3 1 3 3 3 4 3 2 4 6 5 3 2 2 2 3 3 4 4 4 4 5 5 5 5 4 3 3 3
14 16 15 13 11 11 10 9 8 7 6 5 3 1 1 2 2 1 2 1 3 3 4 6 6 5 2 5 4 2 3 5 5 5 5 6 5 5 5 4 3 3 3 3
13 13 12 10 9 8 8 6 6 5 3 2 2 3 3 3 2 2 3 3 4 5 4 6 7 4 5 6 6 3 4 5 5 5 5 5 4 3 6 5 4 3 3 3
9 8 9 7 6 5 5 4 4 2 3 4 4 3 5 1 2 3 3 3 5 4 6 5 2 4 4 5 5 4 5 5 5 5 4 4 5 3 3 2 2 2 3 2
5 5 4 3 2 1 4 4 3 3 2 2 1 3 2 3 4 4 1 3 2 4 1 3 3 6 4 7 3 4 5 5 4 2 3 3 2 3 4 3 4 4 4 3
3 2 2 3 2 2 3 3 1 3 3 4 4 4 2 1 1 2 2 2 3 4 2 3 5 3 4 2 4 4 4 5 5 4 2 3 3 3 3 4 4 4 3 4
1 1 2 2 5 6 7 6 6 6 6 7 8 7 5 3 3 2 2 1 4 4 2 3 0 3 4 3 3 3 3 3 2 3 4 4 3 4 4 4 4 4 4 4
3 3 4 7 7 3 4 4 5 6 7 6 6 6 6 3 3 1 3 4 7 6 4 5 4 4 2 2 2 3 3 3 3 3 3 3 4 4 4 4 4 3 4 4
3 3 3 6 5 3 2 3 3 3 4 4 4 4 3 3 4 4 3 4 3 3 3 4 4 4 3 4 4 4 4 4 4 4 5 5 5 5 4 5 5 4 5 5
4 5 4 3 2 2 3 4 5 3 3 3 2 3 2 3 3 3 4 3 3 4 4 5 5 5 5 5 5 5 4 5 5 5 5 5 5 5 5 5 5 5 5 5
Wind_Direction
238 247 251 276 284 286 197 196 162 211 184 178 193 201 185 191 185 193 166 130 117 101 50 77 60 46 104 135 166 147 140 150 182 196 213 221 222 229 233 237 247 255 263 265
249 233 260 288 284 287 164 133 86 127 157 177 180 156 162 172 157 167 169 186 145 142 79 57 80 69 81 81 113 88 181 162 203 355 291 276 299 317 341 321 302 292 294 294
251 261 311 306 256 176 114 129 144 180 201 159 173 180 186 174 180 180 183 176 141 88 42 39 73 81 103 77 45 59 90 70 67 71 51 49 43 53 44 20 16 21 17 19
225 355 249 245 353 133 122 136 114 95 154 172 176 207 186 171 179 200 219 172 130 100 359 3 77 79 84 79 76 67 63 68 65 58 55 59 54 40 27 23 33 45 48 74
150 198 272 197 25 11 117 243 190 153 174 182 162 123 254 208 192 193 205 194 149 123 103 83 85 89 86 72 68 65 56 53 37 38 45 49 33 12 354 5 4 77 87 92
156 188 234 196 31 53 54 324 212 176 183 174 147 166 238 192 178 173 162 137 129 121 117 105 94 92 90 72 58 47 40 32 23 26 57 34 12 360 335 322 308 127 106 93
199 201 287 133 110 82 81 249 191 188 188 174 188 196 195 140 134 138 140 123 108 90 90 80 77 87 79 75 65 61 50 35 26 27 28 25 2 5 351 10 42 62 101 98
132 143 256 178 173 170 216 297 173 203 216 197 195 152 147 144 139 143 139 119 113 102 98 97 98 95 87 69 43 41 33 29 19 21 10 6 3 347 24 43 55 49 65 351
170 223 266 187 213 191 179 230 197 180 195 200 171 161 150 141 137 145 134 126 126 120 114 106 101 100 87 73 60 43 33 20 19 7 356 358 10 6 360 14 12 301 314 307
98 236 218 223 228 249 210 217 216 208 154 34 169 149 145 138 140 138 138 137 141 132 124 114 104 100 106 88 72 54 35 8 360 4 350 350 345 18 353 327 317 284 288 292
262 286 286 244 218 212 247 239 247 317 259 162 157 136 128 119 112 111 115 118 117 122 119 126 123 117 116 105 92 69 26 357 353 343 348 347 333 294 315 281 216 270 251 225
220 235 180 217 205 186 169 101 327 94 62 92 132 128 119 105 106 108 106 110 108 107 111 125 116 112 111 104 106 100 26 353 341 352 345 333 323 325 314 273 314 329 231 210
246 207 239 270 176 138 112 95 72 75 74 91 84 103 101 111 105 97 95 98 102 99 82 94 104 109 108 111 93 90 4 349 311 335 327 319 313 319 310 320 339 303 318 320
33 23 335 225 186 125 101 93 84 72 68 77 91 89 97 98 88 77 69 73 80 85 88 95 137 192 160 142 119 94 4 321 238 280 296 307 306 302 289 270 287 287 310 307
90 103 86 73 80 97 98 97 85 80 79 73 68 73 77 96 91 103 115 107 106 96 140 204 173 232 207 202 162 170 305 270 254 267 283 285 289 297 290 303 259 260 296 326
303 78 90 100 123 117 106 108 106 101 87 85 85 92 98 64 83 99 92 113 132 196 218 241 251 263 282 190 194 232 260 265 275 270 293 301 305 295 306 307 278 285 282 276
110 76 78 80 83 78 82 83 89 94 97 90 96 101 104 114 163 167 180 201 210 227 249 232 250 275 62 150 193 242 250 273 277 295 302 300 276 277 287 280 280 279 278 278
67 80 83 88 94 97 90 90 97 102 100 108 117 153 149 163 226 282 259 196 223 274 270 231 191 195 168 167 170 244 266 277 285 281 278 278 277 280 272 282 265 303 305 302
77 90 86 85 86 90 90 95 98 106 118 139 170 173 302 310 299 136 195 288 309 310 273 195 201 193 187 232 195 222 262 280 283 287 288 285 285 283 282 270 317 323 301 309
83 81 92 100 107 109 112 114 117 120 173 218 322 312 115 119 77 13 3 312 265 242 207 189 213 231 222 208 206 252 283 281 281 277 279 287 284 340 344 333 360 340 336 333
79 85 87 87 83 85 100 137 158 195 240 244 242 110 127 193 343 359 356 341 296 191 177 202 221 221 198 208 236 258 265 279 282 288 294 329 311 309 262 305 305 294 287 290
80 80 87 105 127 181 217 227 244 237 95 359 25 155 196 279 289 328 340 200 352 59 44 302 309 244 214 261 270 273 277 289 284 279 307 301 305 306 308 310 303 300 301 299
87 68 30 348 48 68 66 103 44 24 339 293 275 279 280 286 168 120 40 301 159 229 270 319 310 228 248 265 273 275 281 290 293 317 324 308 312 287 278 285 284 288 288 287
359 270 263 90 59 47 54 39 51 35 26 27 52 66 71 49 10 30 35 358 14 331 354 342 229 199 305 328 319 317 331 335 335 320 308 299 294 291 287 287 276 270 282 292
162 133 66 63 85 80 62 25 31 30 59 54 38 23 28 45 118 291 40 49 44 52 35 10 5 308 324 326 306 309 299 300 306 318 306 295 290 286 283 284 273 280 279 270
90 77 79 116 132 113 61 35 42 63 70 43 8 16 31 31 55 66 62 67 42 11 340 310 303 308 295 292 276 286 264 270 270 278 275 277 277 275 275 270 257 252 255 261
63 86 110 67 41 59 39 39 85 73 42 36 15 352 34 71 47 50 40 12 331 311 298 288 280 281 275 268 272 280 275 270 262 261 261 263 265 263 263 264 259 255 258 257